Wind_Speed
21 20 20 19 18 16 15 15 16 15 14 13 12 12 11 11 10 9 8 8 7 7 7 8 8 9 9 9 10 10 10 10 10 11 11 11 13 13 13 13 13 13 13 12 12 12 12 12 11
22 22 21 20 19 18 17 17 18 16 14 13 13 12 11 11 9 8 8 7 7 7 8 8 9 10 10 10 10 10 10 10 11 12 11 11 12 13 13 13 13 13 12 12 12 12 12 11 11
22 21 21 21 20 19 18 18 18 17 15 14 14 13 12 11 10 9 8 8 7 7 8 9 10 10 10 10 10 10 10 10 11 11 11 11 11 12 13 13 13 13 12 12 11 11 11 11 10
21 22 21 21 20 20 19 19 19 17 16 15 14 14 12 12 10 9 8 8 8 8 9 10 11 11 11 11 10 10 10 10 10 11 11 10 11 12 12 13 13 13 12 12 11 11 10 10 10
20 21 22 21 21 21 20 20 19 19 17 16 15 14 13 12 11 10 9 9 9 9 10 11 11 11 11 11 10 10 10 11 11 11 11 11 11 12 12 12 12 12 11 11 10 10 10 9 9
20 20 21 21 21 21 21 21 21 19 18 16 15 15 14 12 11 11 10 10 9 10 11 11 11 11 10 11 11 11 11 11 11 11 12 12 11 11 11 11 12 11 11 10 10 9 9 9 8
20 20 21 20 21 21 21 21 21 19 17 16 15 15 14 14 12 11 11 11 10 10 11 11 11 12 11 11 11 10 10 11 11 11 11 11 11 10 10 11 10 10 10 9 9 9 8 7 7
18 19 20 20 21 21 22 21 20 19 18 16 15 15 14 14 12 12 11 11 11 11 12 12 12 11 11 11 10 10 10 10 11 11 11 10 11 10 10 10 9 8 8 8 8 8 7 7 6
17 18 19 20 21 21 21 21 20 19 18 17 16 15 14 13 12 12 11 11 12 12 12 12 11 11 12 11 11 11 11 10 10 11 10 10 10 10 10 9 8 8 7 7 7 7 6 6 5
16 17 18 19 21 21 21 21 20 19 18 17 16 16 15 14 13 12 12 11 12 12 12 11 11 11 11 11 11 11 11 11 10 10 9 9 10 10 10 9 8 7 6 6 6 6 5 5 5
14 16 17 18 19 20 20 21 20 19 18 17 17 16 15 14 14 13 13 12 12 12 11 11 10 10 10 11 11 11 10 10 10 9 9 9 9 9 9 8 7 6 5 5 4 4 3 3 3
12 14 15 17 18 19 20 20 20 19 19 18 17 17 17 15 15 14 13 13 13 12 11 11 10 10 10 10 10 10 9 9 9 8 9 8 8 8 7 6 6 5 5 4 3 2 2 1 1
11 13 14 16 18 19 19 19 19 19 19 19 18 18 18 16 15 15 15 14 13 12 11 11 10 10 9 9 9 9 9 8 8 8 8 7 7 7 5 5 4 4 3 2 2 1 1 1 0
10 12 13 14 16 17 17 17 17 18 18 18 18 18 18 17 16 15 15 14 13 13 12 11 10 10 9 9 9 9 9 8 7 7 6 5 5 4 4 3 2 2 2 2 1 1 1 2 2
9 10 11 12 15 16 16 16 16 16 16 17 17 17 17 16 16 16 15 15 14 14 13 12 11 10 10 9 9 9 9 8 7 6 5 4 3 3 2 2 1 1 1 1 2 2 2 3 3
7 8 9 11 12 13 14 15 14 15 14 14 15 15 16 16 16 16 15 15 15 14 14 13 13 12 11 10 10 10 9 9 8 6 5 4 3 2 2 1 0 1 1 1 2 3 3 4 4
5 6 7 8 9 11 12 13 13 13 13 13 14 14 14 14 14 15 15 14 14 14 14 13 13 13 12 11 10 10 9 9 8 6 5 4 3 2 2 1 1 1 1 1 2 3 4 4 5
4 4 4 5 6 8 9 10 10 11 12 11 12 12 13 13 14 13 14 14 14 14 14 14 13 12 12 10 10 9 9 8 8 7 6 5 5 4 2 1 1 2 2 2 4 4 4 5 5
6 4 3 2 3 4 6 7 7 8 9 10 11 11 11 12 12 12 13 13 13 13 13 14 13 13 12 11 10 9 9 8 7 7 7 6 5 4 4 3 3 3 3 3 3 4 5 6 6
9 7 5 2 1 2 3 5 5 6 7 7 8 9 10 10 11 11 11 12 12 12 13 14 13 12 12 11 10 10 9 8 8 7 7 6 6 5 5 4 4 4 4 4 4 5 6 7 7
12 9 8 6 5 4 3 2 3 4 5 5 6 7 7 8 9 9 10 11 11 11 12 12 13 12 12 12 11 10 10 9 8 8 7 7 6 6 6 5 5 5 5 5 5 6 7 8 8
13 12 10 9 8 7 5 3 2 2 3 4 6 6 5 5 6 7 8 9 9 10 11 11 11 11 11 11 11 10 10 9 8 8 7 7 6 6 7 7 6 6 6 6 6 7 8 8 9
16 14 13 13 11 10 8 7 4 3 2 3 5 6 5 4 3 4 5 7 7 8 9 9 10 10 10 10 10 10 9 9 8 8 8 7 7 7 7 8 8 7 7 7 7 7 8 9 10
19 17 16 15 14 12 10 9 6 5 3 3 4 5 5 4 2 2 3 5 5 6 7 7 8 8 9 9 9 9 9 8 8 8 8 7 7 8 8 8 8 8 8 8 8 8 9 10 10
22 20 19 18 17 15 13 12 8 6 6 5 5 5 5 5 3 2 2 2 3 4 5 6 7 7 7 8 9 8 8 8 8 8 8 8 8 8 8 9 9 10 10 10 9 9 10 11 12
24 23 21 20 18 17 16 15 11 9 8 8 7 7 6 6 5 3 2 1 2 2 3 4 5 5 6 7 8 8 7 7 7 8 9 9 9 9 9 9 10 10 11 11 11 11 12 12 13
27 24 22 21 21 20 20 18 15 12 10 9 8 8 7 6 6 6 5 4 3 3 3 3 3 4 5 6 7 8 8 7 8 8 10 10 11 11 11 11 10 11 12 12 12 13 13 14 14
29 26 24 23 23 23 22 20 17 15 12 11 10 9 8 7 8 8 7 6 5 4 5 4 4 5 5 6 7 8 8 9 9 9 10 11 11 12 12 12 11 11 12 12 13 13 14 15 15
30 29 28 27 26 25 24 21 18 16 15 13 12 11 10 10 10 9 9 8 7 6 6 6 7 7 7 7 7 8 9 9 10 11 11 12 12 13 13 13 13 13 13 14 14 14 15 15 16
33 32 30 29 28 26 25 23 20 18 16 15 13 13 12 11 10 10 11 10 10 10 8 8 9 10 10 9 9 9 10 11 11 12 13 13 14 14 14 13 13 13 14 14 14 15 15 16 16
Wind_Direction
57 58 57 58 57 57 56 58 59 58 56 55 58 60 63 71 76 77 78 79 81 80 79 80 83 86 86 88 88 86 85 90 95 97 95 93 96 99 103 106 112 118 118 119 120 119 119 117 117
59 58 56 56 56 56 57 59 59 58 57 56 58 59 64 72 75 81 81 81 85 86 84 83 87 88 87 89 89 89 88 90 94 97 97 99 100 100 104 108 111 115 116 117 117 118 115 113 118
60 57 56 56 56 56 58 61 61 58 57 56 55 59 67 72 76 82 81 83 88 94 91 87 88 90 89 90 91 89 90 90 94 95 100 103 102 102 105 110 113 114 115 116 116 116 113 113 117
60 58 56 56 56 57 57 59 61 59 56 55 55 60 65 69 77 82 82 83 87 91 90 89 88 89 89 89 91 91 90 94 95 95 99 104 105 104 107 112 112 113 114 115 117 118 117 118 115
60 58 57 56 57 56 56 57 58 57 55 55 56 62 65 68 75 78 79 81 85 88 88 89 88 90 92 92 93 91 87 93 96 98 98 104 107 107 109 113 114 114 114 115 117 118 116 116 114
58 58 57 55 56 56 55 56 56 54 53 54 57 63 66 68 76 77 78 82 84 86 88 88 89 92 94 92 90 87 87 96 102 102 102 105 107 109 112 113 114 114 114 115 116 115 114 114 115
60 58 57 56 57 56 55 55 55 54 53 54 57 59 63 67 73 75 78 82 85 86 88 90 90 90 93 93 91 89 91 99 108 108 109 107 109 112 114 113 115 115 114 114 113 115 114 114 116
60 57 57 58 59 57 56 56 55 54 54 54 56 58 61 66 69 74 79 82 84 86 87 88 88 89 92 94 94 90 89 100 108 112 111 111 114 116 116 115 115 114 115 113 114 111 109 109 109
62 58 58 59 60 58 56 55 55 53 53 53 56 59 59 63 69 74 79 83 83 83 83 86 88 87 90 90 91 88 87 91 105 109 112 111 113 115 114 113 117 114 111 111 110 109 109 104 100
64 62 61 60 60 59 56 55 56 54 52 52 55 58 60 60 67 72 75 78 79 79 79 83 87 88 87 87 88 87 89 91 99 110 113 121 118 117 115 113 118 115 110 110 109 108 104 100 98
67 64 64 64 62 59 58 56 57 57 54 53 54 58 61 60 60 69 74 76 77 77 78 80 83 87 89 87 85 86 89 92 96 107 112 121 122 118 114 113 115 114 111 109 114 118 118 108 98
71 68 66 65 64 60 58 58 56 57 55 54 56 58 58 60 59 62 69 72 75 77 77 79 81 85 86 83 82 84 88 91 93 99 104 113 115 119 116 120 117 118 116 112 117 121 146 132 106
75 73 69 65 63 60 58 57 55 55 55 55 58 59 58 58 59 60 63 68 72 73 74 74 77 77 79 80 78 76 80 85 89 93 105 111 116 120 117 115 117 122 127 128 127 133 184 212 220
78 76 72 68 64 59 56 54 52 52 54 55 59 60 59 58 57 60 63 64 67 70 71 73 77 78 78 79 76 73 72 74 80 88 100 106 117 119 113 114 110 129 148 159 190 203 224 249 259
86 81 75 69 66 61 57 54 50 48 51 53 55 57 58 58 59 60 63 64 66 68 69 70 74 76 76 74 71 68 67 69 73 82 87 90 102 110 115 121 130 173 186 200 218 234 247 268 266
96 84 77 70 68 64 58 53 48 44 46 51 53 53 53 56 59 60 63 66 66 67 68 70 71 73 72 71 70 68 64 64 67 74 77 74 79 74 77 93 97 236 237 245 269 261 264 269 271
123 92 78 69 66 66 60 54 49 42 43 48 51 52 52 54 57 59 62 65 67 68 69 71 72 73 72 69 68 68 66 63 62 62 60 54 55 53 49 70 44 302 276 285 291 292 289 285 285
155 127 95 72 64 63 62 53 47 43 42 44 48 51 53 55 57 59 62 65 67 68 70 72 71 71 71 71 69 67 66 64 60 54 45 44 44 32 15 3 334 309 297 294 292 296 297 294 290
194 181 161 84 53 53 57 51 46 39 39 42 44 49 53 56 58 58 60 64 66 68 68 68 69 69 68 67 66 66 64 61 56 51 45 41 36 28 20 357 327 312 303 298 293 298 298 296 292
214 218 223 233 295 12 35 42 44 32 32 34 37 42 50 56 59 60 59 61 63 65 65 64 63 64 64 63 62 60 58 56 51 45 40 37 29 22 18 10 351 332 317 304 301 300 296 294 296
222 230 236 244 259 276 316 11 32 21 22 19 23 32 42 50 57 61 60 58 60 61 63 63 61 59 59 58 56 54 51 47 43 39 34 32 22 14 6 358 350 339 327 313 302 301 300 300 300
227 235 240 245 253 266 272 290 319 358 4 0 9 14 27 39 50 57 57 56 59 61 63 63 60 57 53 51 52 50 46 44 39 33 28 22 14 7 359 352 345 339 331 322 314 311 308 303 301
230 235 242 245 251 256 260 259 264 281 319 328 347 358 2 16 34 51 52 54 57 56 60 61 57 53 49 45 45 41 38 36 32 28 23 17 13 6 358 351 344 339 333 325 317 313 312 308 305
232 235 241 244 248 253 258 260 260 268 272 291 316 330 339 343 354 14 36 51 55 54 53 53 50 49 46 42 36 33 32 29 27 24 20 13 9 2 355 350 344 338 331 324 317 313 312 309 308
231 235 241 244 246 250 256 260 263 264 266 278 287 293 307 312 311 317 352 35 46 49 46 43 44 46 44 39 33 27 24 21 18 18 14 9 3 356 350 346 341 334 329 323 317 314 313 310 308
231 237 242 246 250 252 254 257 259 264 272 277 277 278 288 291 288 280 294 322 344 5 21 25 30 34 32 28 24 20 18 16 15 13 8 3 357 349 342 337 333 331 327 322 315 312 311 311 309
232 236 241 248 251 252 253 257 258 264 272 276 272 280 286 284 282 271 270 272 279 296 315 342 1 8 7 9 10 10 7 8 8 7 3 358 350 342 338 333 328 327 324 320 317 313 312 312 310
232 235 239 245 252 255 256 257 260 263 267 269 272 278 278 278 277 267 266 269 270 281 292 301 316 327 334 342 348 350 352 353 353 351 350 350 346 340 335 332 327 325 324 322 318 314 313 312 311
232 235 238 243 248 255 259 260 261 264 266 269 271 272 272 272 274 267 269 268 265 270 281 293 295 296 305 319 330 335 333 335 337 338 337 338 336 335 333 330 326 322 319 319 318 315 315 314 311
232 236 238 241 245 250 255 259 261 262 265 268 271 270 268 265 266 267 264 264 267 270 271 288 290 289 296 303 314 317 321 323 324 328 331 331 331 331 331 327 326 324 323 323 322 319 317 314 313
Height
5880 5879 5877 5876 5875 5872 5870 5869 5867 5866 5865 5865 5864 5863 5862 5863 5863 5865 5863 5862 5862 5862 5861 5861 5861 5861 5861 5861 5861 5861 5861 5862 5862 5862 5863 5863 5864 5864 5865 5866 5868 5869 5871 5872 5873 5874 5875 5876 5878
5883 5881 5881 5878 5876 5874 5873 5870 5868 5868 5867 5866 5865 5864 5864 5863 5864 5864 5863 5863 5863 5863 5862 5862 5862 5862 5862 5862 5862 5863 5863 5863 5864 5864 5864 5865 5866 5867 5868 5869 5870 5871 5873 5874 5875 5877 5877 5878 5880
5886 5884 5883 5880 5878 5876 5875 5873 5871 5870 5869 5868 5867 5866 5865 5865 5865 5865 5865 5864 5864 5864 5864 5863 5863 5863 5863 5864 5864 5864 5864 5865 5865 5866 5866 5867 5868 5869 5871 5872 5873 5874 5875 5876 5878 5879 5880 5881 5881
5889 5888 5886 5883 5880 5879 5877 5875 5873 5872 5871 5870 5869 5868 5867 5867 5867 5866 5866 5866 5866 5866 5865 5865 5865 5865 5865 5865 5866 5866 5866 5866 5867 5867 5868 5869 5871 5872 5873 5874 5875 5876 5877 5878 5880 5881 5882 5882 5883
5892 5890 5888 5885 5883 5881 5879 5877 5875 5874 5873 5872 5872 5870 5869 5869 5868 5868 5868 5867 5867 5867 5867 5867 5866 5866 5866 5867 5867 5867 5867 5867 5868 5869 5870 5871 5872 5874 5875 5876 5877 5878 5880 5881 5882 5882 5883 5884 5885
5894 5892 5890 5887 5886 5884 5882 5880 5878 5877 5876 5875 5874 5873 5872 5871 5871 5870 5870 5869 5869 5869 5868 5868 5868 5868 5868 5869 5869 5869 5869 5869 5870 5871 5872 5873 5874 5876 5877 5878 5879 5880 5881 5882 5883 5884 5885 5886 5887
5897 5895 5892 5890 5888 5886 5885 5883 5881 5880 5879 5878 5877 5875 5874 5873 5873 5872 5872 5871 5871 5871 5870 5870 5870 5870 5870 5870 5871 5871 5871 5871 5872 5873 5874 5875 5876 5878 5879 5880 5881 5882 5883 5884 5885 5886 5887 5888 5888
5899 5898 5895 5893 5891 5889 5888 5885 5884 5883 5882 5881 5879 5878 5877 5876 5875 5874 5874 5873 5873 5872 5872 5872 5872 5872 5872 5872 5872 5873 5873 5873 5874 5875 5876 5877 5878 5879 5880 5881 5882 5884 5885 5886 5887 5888 5889 5889 5890
5901 5901 5897 5896 5894 5892 5890 5889 5887 5886 5885 5883 5882 5881 5880 5879 5878 5877 5876 5875 5875 5875 5874 5874 5874 5874 5874 5874 5874 5874 5875 5875 5876 5876 5878 5879 5880 5881 5882 5883 5884 5885 5886 5888 5888 5889 5890 5890 5891
5903 5902 5900 5899 5897 5895 5893 5892 5890 5889 5888 5886 5885 5884 5882 5881 5880 5879 5878 5878 5877 5877 5876 5876 5876 5876 5876 5876 5877 5876 5877 5877 5877 5878 5879 5880 5881 5882 5883 5885 5886 5887 5888 5889 5890 5890 5891 5891 5892
5905 5904 5903 5901 5900 5898 5896 5895 5894 5892 5891 5890 5888 5887 5885 5884 5883 5882 5881 5880 5880 5879 5879 5878 5878 5878 5878 5879 5879 5879 5878 5879 5879 5880 5881 5881 5882 5884 5885 5886 5888 5888 5889 5890 5891 5891 5892 5892 5893
5908 5907 5906 5904 5903 5901 5900 5898 5897 5895 5894 5893 5891 5890 5888 5887 5886 5885 5884 5883 5882 5882 5881 5881 5880 5880 5880 5880 5881 5880 5880 5881 5881 5882 5883 5883 5884 5885 5887 5888 5889 5890 5890 5891 5892 5892 5892 5893 5893
5909 5909 5908 5907 5905 5904 5903 5901 5900 5899 5897 5896 5894 5893 5891 5890 5889 5888 5887 5886 5885 5884 5884 5883 5883 5882 5882 5883 5883 5883 5882 5883 5883 5883 5884 5885 5886 5887 5888 5889 5890 5890 5891 5891 5892 5893 5893 5893 5893
5911 5911 5910 5909 5908 5906 5905 5904 5904 5902 5901 5899 5898 5896 5895 5893 5892 5891 5890 5889 5888 5887 5886 5885 5885 5885 5885 5885 5885 5885 5884 5884 5885 5885 5886 5887 5888 5888 5889 5889 5890 5891 5891 5892 5892 5893 5893 5893 5893
5912 5913 5912 5911 5910 5909 5908 5908 5906 5905 5904 5902 5901 5900 5898 5896 5895 5894 5892 5891 5890 5889 5889 5888 5887 5887 5887 5887 5887 5887 5887 5887 5887 5887 5888 5888 5889 5889 5890 5890 5891 5891 5891 5892 5892 5893 5893 5893 5893
5913 5914 5913 5913 5912 5911 5912 5911 5910 5908 5907 5905 5904 5902 5901 5899 5898 5897 5895 5894 5893 5892 5891 5890 5890 5889 5889 5889 5889 5889 5889 5889 5889 5889 5889 5889 5889 5890 5890 5891 5891 5891 5891 5892 5892 5892 5892 5892 5892
5914 5914 5914 5915 5914 5913 5913 5912 5912 5911 5910 5908 5907 5905 5904 5902 5901 5899 5898 5897 5896 5895 5894 5893 5892 5892 5892 5892 5892 5891 5891 5891 5890 5890 5890 5890 5890 5890 5890 5891 5891 5891 5891 5891 5892 5892 5892 5892 5891
5914 5914 5915 5915 5915 5914 5914 5914 5914 5913 5912 5910 5909 5907 5906 5905 5903 5902 5901 5899 5898 5897 5896 5895 5895 5894 5894 5893 5893 5893 5892 5892 5892 5892 5891 5891 5891 5891 5890 5891 5890 5890 5891 5891 5891 5891 5891 5890 5890
5914 5915 5915 5916 5916 5916 5915 5915 5915 5914 5913 5912 5911 5909 5908 5907 5906 5904 5903 5902 5901 5900 5899 5898 5897 5896 5896 5895 5895 5894 5894 5893 5893 5893 5892 5892 5892 5891 5891 5890 5890 5890 5890 5890 5890 5890 5889 5889 5889
5913 5914 5915 5916 5916 5916 5916 5915 5915 5915 5915 5914 5912 5911 5909 5908 5907 5906 5905 5904 5903 5902 5901 5900 5899 5898 5898 5897 5896 5895 5895 5895 5894 5893 5893 5892 5892 5891 5891 5890 5890 5889 5889 5889 5889 5888 5888 5887 5887
5911 5913 5913 5914 5915 5915 5916 5916 5916 5916 5915 5915 5914 5912 5911 5910 5909 5908 5907 5906 5905 5904 5902 5902 5901 5900 5899 5898 5897 5896 5896 5895 5895 5894 5893 5892 5892 5892 5891 5890 5889 5889 5888 5888 5887 5887 5886 5886 5885
5910 5911 5912 5912 5913 5914 5915 5916 5916 5916 5915 5915 5914 5913 5912 5911 5910 5909 5908 5908 5907 5905 5904 5903 5902 5902 5901 5900 5898 5898 5897 5896 5895 5894 5893 5893 5892 5892 5891 5890 5889 5888 5888 5887 5886 5885 5885 5884 5883
5907 5909 5910 5910 5911 5912 5913 5915 5916 5915 5915 5915 5914 5913 5913 5912 5911 5910 5909 5909 5908 5907 5906 5905 5904 5903 5902 5901 5900 5898 5897 5896 5895 5894 5893 5892 5892 5891 5890 5889 5888 5887 5887 5886 5885 5884 5883 5882 5881
5904 5906 5907 5908 5909 5910 5912 5913 5914 5914 5914 5914 5914 5913 5913 5912 5911 5911 5910 5909 5909 5908 5907 5906 5905 5904 5902 5901 5900 5899 5898 5897 5896 5894 5893 5892 5891 5891 5890 5889 5888 5887 5885 5884 5883 5882 5881 5880 5879
5901 5903 5904 5905 5906 5908 5909 5910 5913 5913 5913 5913 5913 5912 5912 5911 5911 5911 5910 5910 5909 5908 5908 5906 5905 5904 5903 5902 5900 5899 5898 5897 5896 5895 5893 5892 5891 5890 5889 5888 5887 5885 5884 5883 5881 5880 5879 5878 5876
5897 5899 5901 5903 5904 5905 5906 5907 5911 5911 5911 5911 5911 5911 5911 5910 5910 5910 5909 5909 5909 5908 5907 5907 5905 5904 5903 5902 5900 5899 5898 5897 5896 5895 5893 5892 5891 5889 5888 5887 5885 5884 5882 5881 5880 5878 5877 5875 5874
5893 5895 5897 5899 5900 5902 5903 5905 5907 5908 5909 5909 5909 5909 5909 5909 5909 5908 5908 5908 5908 5908 5907 5906 5905 5904 5903 5902 5900 5899 5897 5896 5895 5894 5893 5892 5890 5889 5887 5885 5884 5882 5881 5879 5878 5876 5875 5873 5871
5888 5891 5893 5894 5895 5897 5899 5901 5904 5905 5907 5907 5907 5907 5907 5907 5907 5907 5907 5907 5907 5907 5906 5905 5905 5904 5903 5901 5900 5898 5897 5896 5895 5894 5893 5891 5890 5888 5886 5884 5882 5880 5879 5877 5876 5874 5872 5870 5868
5883 5886 5887 5890 5892 5893 5894 5899 5900 5902 5903 5904 5904 5905 5905 5905 5905 5905 5905 5905 5905 5905 5905 5904 5904 5903 5901 5900 5899 5897 5896 5895 5894 5893 5891 5890 5888 5886 5884 5882 5881 5878 5877 5875 5873 5871 5869 5867 5865
5877 5880 5883 5885 5887 5889 5890 5896 5896 5898 5899 5900 5901 5902 5902 5902 5902 5903 5903 5903 5903 5902 5902 5902 5901 5901 5899 5898 5897 5896 5895 5894 5892 5891 5889 5888 5886 5884 5882 5880 5878 5876 5874 5872 5870 5868 5866 5864 5862